Simultaneous Nadir Overpasses (SNOs) Predictions

Prediction of SNOs between GOES-16 and NOAA-19 Satellite Orbit:

Table of predicted SNOs for the next 14.0 days since TLE Epoch: 8/8/2025
Index Date Time (GOES-16) GOES-16 Lat,Lon NOAA-19 Lat,Lon Distance(km) Time Diff (sec)
1 08/11/2025 05:00:51 -0.01,-104.72 -0.41,-106.48 201.24 80
2 08/12/2025 04:45:33 -0.00,-104.72 0.33,-103.42 149.28 80
3 08/13/2025 04:32:53 0.00,-104.72 1.01,-100.34 499.74 80
4 08/14/2025 17:06:40 0.01,-104.76 0.72,-107.82 349.71 80
5 08/15/2025 16:54:01 0.01,-104.76 0.02,-104.75 1.71 80
6 08/16/2025 16:38:42 0.01,-104.76 -0.68,-101.68 351.28 80
7 08/19/2025 04:59:59 -0.02,-104.72 -0.34,-106.12 160.26 80
8 08/20/2025 04:44:40 -0.02,-104.72 0.34,-103.05 189.92 80
9 08/22/2025 17:05:47 0.03,-104.75 0.63,-107.46 308.45 80
